Météo par heure à Alibaevo

Ce jour, 15 Mai, Samedi

Heure Température Précipitation Vent Pression Humidité
00:00 +18°C° 0 mm 1 m/s 743 mmHg 48%
01:00 +18°C° 0 mm 1 m/s 743 mmHg 49%
02:00 +18°C° 0 mm 1 m/s 743 mmHg 50%
03:00 +16°C° 0 mm 1 m/s 743 mmHg 50%
04:00 +16°C° 0 mm 1 m/s 743 mmHg 51%
05:00 +19°C° 0 mm 1 m/s 743 mmHg 50%
06:00 +20°C° 0 mm 1 m/s 743 mmHg 49%
07:00 +20°C° 0 mm 0 m/s 743 mmHg 49%
08:00 +24°C° 0 mm 1 m/s 743 mmHg 45%
09:00 +25°C° 0 mm 1 m/s 743 mmHg 41%
10:00 +27°C° 0 mm 1 m/s 743 mmHg 36%
11:00 +28°C° 0 mm 1 m/s 743 mmHg 34%
12:00 +28°C° 0 mm 1 m/s 743 mmHg 33%
13:00 +29°C° 0 mm 1 m/s 743 mmHg 31%
14:00 +29°C° 0 mm 1 m/s 743 mmHg 31%
15:00 +29°C° 0 mm 1 m/s 743 mmHg 30%
16:00 +29°C° 0 mm 1 m/s 742 mmHg 30%
17:00 +26°C° 0 mm 0 m/s 742 mmHg 36%
18:00 +24°C° 0 mm 0 m/s 742 mmHg 41%
19:00 +23°C° 0 mm 0 m/s 742 mmHg 47%
20:00 +24°C° 0 mm 1 m/s 742 mmHg 47%
21:00 +22°C° 0 mm 1 m/s 742 mmHg 48%
22:00 +21°C° 0 mm 1 m/s 742 mmHg 49%
23:00 +20°C° 0 mm 1 m/s 742 mmHg 52%

Demain, 16 Mai, Dimanche

Heure Température Précipitation Vent Pression Humidité
00:00 +19°C° 0 mm 1 m/s 741 mmHg 56%
01:00 +18°C° 0 mm 1 m/s 741 mmHg 60%
02:00 +18°C° 0 mm 1 m/s 741 mmHg 62%
03:00 +18°C° 0 mm 1 m/s 741 mmHg 63%
04:00 +16°C° 0 mm 1 m/s 742 mmHg 64%
05:00 +19°C° 0 mm 1 m/s 742 mmHg 62%
06:00 +20°C° 0 mm 1 m/s 742 mmHg 60%
07:00 +22°C° 0 mm 1 m/s 742 mmHg 58%
08:00 +24°C° 0 mm 1 m/s 742 mmHg 52%
09:00 +26°C° 0 mm 1 m/s 742 mmHg 47%
10:00 +26°C° 0 mm 0 m/s 742 mmHg 41%
11:00 +26°C° 0 mm 0 m/s 742 mmHg 37%
12:00 +27°C° 0 mm 0 m/s 742 mmHg 34%
13:00 +28°C° 0 mm 0 m/s 742 mmHg 30%
14:00 +30°C° 0 mm 1 m/s 742 mmHg 30%
15:00 +30°C° 0 mm 1 m/s 741 mmHg 30%
16:00 +30°C° 0 mm 2 m/s 741 mmHg 30%
17:00 +28°C° 0 mm 1 m/s 741 mmHg 36%
18:00 +27°C° 0 mm 1 m/s 741 mmHg 41%
19:00 +25°C° 0 mm 1 m/s 740 mmHg 47%
20:00 +24°C° 0 mm 1 m/s 740 mmHg 51%
21:00 +22°C° 0 mm 1 m/s 741 mmHg 54%
22:00 +20°C° 0 mm 1 m/s 741 mmHg 57%
23:00 +20°C° 0 mm 1 m/s 741 mmHg 58%

Après-demain, 17 Mai, Lundi

Heure Température Précipitation Vent Pression Humidité
00:00 +19°C° 0 mm 1 m/s 741 mmHg 58%
01:00 +19°C° 0 mm 1 m/s 741 mmHg 59%
02:00 +19°C° 0 mm 1 m/s 741 mmHg 58%
03:00 +19°C° 0 mm 1 m/s 741 mmHg 57%
04:00 +19°C° 0 mm 1 m/s 741 mmHg 56%
05:00 +21°C° 0 mm 1 m/s 741 mmHg 56%
06:00 +22°C° 0 mm 1 m/s 741 mmHg 55%
07:00 +23°C° 0 mm 1 m/s 741 mmHg 54%
08:00 +25°C° 0 mm 1 m/s 741 mmHg 49%
09:00 +27°C° 0 mm 2 m/s 741 mmHg 45%
10:00 +28°C° 0 mm 2 m/s 742 mmHg 40%
11:00 +29°C° 0 mm 2 m/s 741 mmHg 37%
12:00 +30°C° 0 mm 3 m/s 741 mmHg 33%
13:00 +31°C° 0 mm 3 m/s 741 mmHg 29%
14:00 +31°C° 0 mm 3 m/s 741 mmHg 29%
15:00 +31°C° 0 mm 2 m/s 741 mmHg 28%
16:00 +31°C° 0 mm 2 m/s 740 mmHg 27%
17:00 +29°C° 0 mm 2 m/s 740 mmHg 32%
18:00 +28°C° 0 mm 1 m/s 740 mmHg 38%
19:00 +24°C° 0 mm 0 m/s 740 mmHg 43%
20:00 +24°C° 0 mm 1 m/s 740 mmHg 46%
21:00 +22°C° 0 mm 1 m/s 740 mmHg 49%
22:00 +21°C° 0 mm 1 m/s 740 mmHg 52%
23:00 +20°C° 0 mm 1 m/s 740 mmHg 54%

18 Mai, Mardi

Heure Température Précipitation Vent Pression Humidité
00:00 +19°C° 0 mm 1 m/s 740 mmHg 55%
01:00 +19°C° 0 mm 1 m/s 740 mmHg 57%
02:00 +18°C° 0 mm 1 m/s 739 mmHg 58%
03:00 +18°C° 0 mm 1 m/s 739 mmHg 58%
04:00 +18°C° 0 mm 1 m/s 739 mmHg 59%
05:00 +20°C° 0 mm 1 m/s 739 mmHg 57%
06:00 +19°C° 0 mm 0 m/s 739 mmHg 55%
07:00 +21°C° 0 mm 0 m/s 739 mmHg 53%
08:00 +22°C° 0 mm 0 m/s 739 mmHg 49%
09:00 +24°C° 0 mm 0 m/s 739 mmHg 46%
10:00 +28°C° 0 mm 1 m/s 739 mmHg 42%
11:00 +28°C° 0 mm 1 m/s 739 mmHg 39%
12:00 +29°C° 0 mm 1 m/s 739 mmHg 37%
13:00 +30°C° 0 mm 1 m/s 739 mmHg 34%
14:00 +30°C° 0 mm 2 m/s 738 mmHg 34%
15:00 +30°C° 0 mm 2 m/s 738 mmHg 34%
16:00 +30°C° 0 mm 2 m/s 738 mmHg 34%
17:00 +27°C° 0.1 mm 3 m/s 738 mmHg 45%
18:00 +25°C° 0.1 mm 4 m/s 738 mmHg 56%
19:00 +22°C° 0.1 mm 5 m/s 738 mmHg 66%
20:00 +21°C° 0.1 mm 4 m/s 737 mmHg 63%
21:00 +20°C° 0.1 mm 3 m/s 737 mmHg 60%
22:00 +19°C° 0.1 mm 2 m/s 737 mmHg 56%
23:00 +19°C° 0 mm 2 m/s 737 mmHg 59%

19 Mai, Mercredi

Heure Température Précipitation Vent Pression Humidité
00:00 +18°C° 0 mm 2 m/s 737 mmHg 62%
01:00 +17°C° 0 mm 2 m/s 737 mmHg 65%
02:00 +17°C° 0 mm 2 m/s 737 mmHg 66%
03:00 +17°C° 0 mm 2 m/s 737 mmHg 67%
04:00 +16°C° 0 mm 2 m/s 737 mmHg 68%
05:00 +18°C° 0 mm 3 m/s 737 mmHg 68%
06:00 +19°C° 0 mm 4 m/s 737 mmHg 67%
07:00 +20°C° 0 mm 5 m/s 738 mmHg 66%
08:00 +22°C° 0 mm 5 m/s 738 mmHg 62%
09:00 +23°C° 0 mm 6 m/s 738 mmHg 58%
10:00 +24°C° 0 mm 6 m/s 738 mmHg 54%
11:00 +26°C° 0 mm 6 m/s 738 mmHg 51%
12:00 +27°C° 0 mm 6 m/s 738 mmHg 49%
13:00 +27°C° 0 mm 5 m/s 738 mmHg 46%
14:00 +28°C° 0 mm 5 m/s 738 mmHg 47%
15:00 +28°C° 0 mm 5 m/s 738 mmHg 47%
16:00 +28°C° 0 mm 5 m/s 738 mmHg 48%
17:00 +26°C° 0 mm 5 m/s 738 mmHg 54%
18:00 +23°C° 0 mm 4 m/s 738 mmHg 61%
19:00 +21°C° 0 mm 4 m/s 738 mmHg 67%
20:00 +20°C° 0 mm 4 m/s 738 mmHg 67%
21:00 +19°C° 0 mm 4 m/s 739 mmHg 67%
22:00 +18°C° 0 mm 3 m/s 739 mmHg 67%
23:00 +18°C° 0 mm 4 m/s 739 mmHg 64%

20 Mai, Jeudi

Heure Température Précipitation Vent Pression Humidité
00:00 +17°C° 0 mm 5 m/s 739 mmHg 61%
01:00 +17°C° 0 mm 5 m/s 739 mmHg 59%
02:00 +17°C° 0 mm 5 m/s 739 mmHg 61%
03:00 +16°C° 0 mm 5 m/s 739 mmHg 64%
04:00 +16°C° 0 mm 5 m/s 739 mmHg 66%
05:00 +17°C° 0 mm 5 m/s 739 mmHg 67%
06:00 +17°C° 0 mm 5 m/s 740 mmHg 68%
07:00 +19°C° 0 mm 5 m/s 740 mmHg 69%
08:00 +20°C° 0 mm 6 m/s 740 mmHg 63%
09:00 +22°C° 0 mm 6 m/s 740 mmHg 58%
10:00 +24°C° 0 mm 6 m/s 741 mmHg 53%
11:00 +24°C° 0 mm 6 m/s 741 mmHg 50%
12:00 +26°C° 0 mm 6 m/s 741 mmHg 47%
13:00 +27°C° 0 mm 6 m/s 741 mmHg 45%
14:00 +27°C° 0 mm 5 m/s 741 mmHg 45%
15:00 +28°C° 0 mm 5 m/s 740 mmHg 46%
16:00 +28°C° 0 mm 5 m/s 740 mmHg 46%
17:00 +27°C° 0 mm 4 m/s 740 mmHg 52%
18:00 +25°C° 0 mm 4 m/s 740 mmHg 58%
19:00 +24°C° 0 mm 3 m/s 740 mmHg 64%
20:00 +22°C° 0 mm 3 m/s 740 mmHg 62%
21:00 +21°C° 0 mm 4 m/s 740 mmHg 59%
22:00 +20°C° 0 mm 4 m/s 740 mmHg 57%
23:00 +20°C° 0 mm 4 m/s 740 mmHg 55%
Voir plus

Nous avons besoin de votre consentement

Meteoprog et ses fournisseurs de services peuvent stocker et accéder à des données personnelles telles que des cookies, des identifiants d'appareils ou d'autres technologies similaires sur votre appareil et traiter ces données pour personnaliser le contenu et les publicités, ainsi que pour fournir des fonctionnalités de médias sociaux et analyser le trafic.

  • Stocker et/ou accéder à des informations sur votre appareil

    Des cookies, des identifiants d'appareils ou d'autres informations peuvent être stockés ou accessibles sur votre appareil aux fins indiquées ci-dessus.

  • Annonces et contenus personnalisés, mesure des annonces et des contenus, connaissance de l'audience et développement de produits

    Les annonces et le contenu peuvent être personnalisés en fonction d'un profil. D'autres données peuvent être ajoutées pour mieux personnaliser les annonces et le contenu. Les performances des publicités et du contenu peuvent être mesurées. Il est possible d'obtenir des informations sur le public qui a vu les publicités et le contenu. Ces données peuvent être utilisées pour développer ou améliorer l'expérience de l'utilisateur, les systèmes et les logiciels.

En cliquant sur "J'accepte", vous autorisez l'utilisation de cookies, des identifiants d'appareils, des balises web ou d'autres technologies similaires. Vos paramètres peuvent être modifiés dans le navigateur de votre appareil.

Dans certains cas, des intérêts légitimes peuvent être invoqués plutôt qu'un consentement. Vous pouvez en savoir plus à ce sujet dans notre Politique de confidentialité et de cookies.